Weather History for KP59 - July, 2013

Change the Weather History Date:

Thursday, July 18, 2013

  Actual Average Record
Temperature  
Mean Temperature 69 °F -  
Max Temperature 79 °F 69 °F 80 °F (2005)
Min Temperature 60 °F 53 °F 46 °F (1996)
Cooling Degree Days 4    
Growing Degree Days 19 (Base 50)    
Moisture  
Dew Point 65 °F    
Average Humidity 94    
Maximum Humidity 100    
Minimum Humidity 79    
Precipitation  
Precipitation 1.28 in - - ()
Sea Level Pressure  
Sea Level Pressure 29.88 in    
Wind  
Wind Speed 5 mph (West)    
Max Wind Speed 13 mph    
Max Gust Speed 46 mph    
Averages and records for this station are not official NWS values.
T = Trace of Precipitation, MM = Missing Value Source: NWS Daily Summary

Daily Weather History Graph

Daily Weather History Graph

Search for Another Location

Airport or City:

Trip Planner

Search our weather history database for the weather conditions in past years. The results will help you decide how hot, cold, wet, or windy it might be!

Date:

Astronomy

Jul. 18, 2013 Rise Set
Actual Time 6:13 AM EDT 9:41 PM EDT
Civil Twilight 5:35 AM EDT 10:19 PM EDT
Nautical Twilight 4:44 AM EDT 11:09 PM EDT
Astronomical Twilight 3:37 AM EDT 12:16 AM EDT
Moon 5:35 PM EDT (7/18) 2:07 AM EDT (7/18)
Length of Visible Light 16h 44m
Length of Day
15h 28m
Waxing Gibbous, 77% of the Moon is Illuminated
Jul 18
Waxing Gibbous
Jul 22
Full
Jul 29
Last Quarter
Aug 6
New
Aug 14
First Quarter

Hourly Weather History & Observations

Time (EDT) Temp. Dew Point Humidity Pressure Visibility Wind Dir Wind Speed Gust Speed Precip Events Conditions
12:51 AM 66.0 °F 64.0 °F 93% 30.06 in - Variable 3.5 mph - N/A   Unknown
1:51 AM 66.9 °F 64.9 °F 93% 30.06 in - SW 6.9 mph - N/A   Unknown
2:51 AM 68.0 °F 64.9 °F 90% 30.06 in - NNW 3.5 mph - N/A   Unknown
3:51 AM 62.1 °F 61.0 °F 96% 30.06 in - North 9.2 mph - N/A   Unknown
4:51 AM 60.1 °F 60.1 °F 100% 30.07 in - Calm Calm - N/A   Unknown
5:51 AM 64.0 °F 64.0 °F 100% 30.06 in - West 4.6 mph - 0.10 in   Unknown
6:51 AM 66.0 °F 64.9 °F 96% 30.03 in - Calm Calm - 0.01 in   Unknown
7:51 AM 64.9 °F 64.0 °F 97% 30.02 in - Calm Calm - N/A   Unknown
8:51 AM 68.0 °F 66.0 °F 93% 30.01 in - SW 4.6 mph - 0.01 in   Unknown
9:51 AM 64.9 °F 64.0 °F 97% 29.99 in - WSW 6.9 mph - 0.02 in   Unknown
10:51 AM 66.0 °F 64.9 °F 96% 29.96 in - WSW 9.2 mph - 0.06 in   Unknown
11:51 AM 66.9 °F 66.0 °F 97% 29.91 in - SW 10.4 mph 18.4 mph 0.02 in   Unknown
12:51 PM 70.0 °F 68.0 °F 93% 29.88 in - WSW 11.5 mph 19.6 mph N/A   Unknown
1:51 PM 75.0 °F 70.0 °F 84% 29.82 in - WSW 10.4 mph 23.0 mph N/A   Unknown
2:51 PM 78.1 °F 71.1 °F 79% 29.79 in - West 6.9 mph - N/A   Unknown
3:51 PM 71.1 °F 66.0 °F 84% 29.76 in - Variable 4.6 mph - N/A   Unknown
4:04 PM 64.4 °F 62.6 °F 94% 29.79 in - Variable 3.5 mph 46.0 mph N/A   Unknown
4:11 PM 64.4 °F 62.6 °F 94% 29.81 in - NNW 6.9 mph - N/A   Unknown
4:51 PM 64.0 °F 63.0 °F 96% 29.78 in - Variable 4.6 mph - N/A   Unknown
5:51 PM 63.0 °F 62.1 °F 97% 29.80 in - NNE 4.6 mph - 0.38 in   Unknown
6:51 PM 66.9 °F 66.0 °F 97% 29.70 in - SW 5.8 mph - 0.14 in   Unknown
7:51 PM 69.1 °F 66.9 °F 93% 29.66 in - WSW 5.8 mph - N/A   Unknown
8:51 PM 66.9 °F 64.9 °F 93% 29.70 in - ENE 6.9 mph 16.1 mph N/A   Unknown
9:51 PM 66.0 °F 64.0 °F 93% 29.71 in - NNE 6.9 mph - 0.02 in   Unknown
10:51 PM 64.9 °F 64.9 °F 100% 29.70 in - WSW 4.6 mph - 0.50 in   Unknown
11:51 PM 66.9 °F 64.9 °F 93% 29.64 in - WSW 12.7 mph 21.9 mph 0.02 in   Unknown